Wind_Speed
24 24 26 26 28 29 30 31 30 26 22 21 20 19 20 20 20 20 20 20 22 23 23 23 23 25 26 25 24 25 26 26 27 29 26 36 36 40 44 46 35 40 33 36 34
26 27 26 28 27 28 29 29 26 22 22 23 21 21 21 22 21 20 20 20 21 22 23 23 23 24 25 26 26 26 24 23 25 26 27 33 36 39 42 45 38 51 32 28 30
25 26 26 27 27 25 24 24 23 22 22 23 23 22 22 22 21 22 22 22 21 21 20 21 22 22 23 23 26 26 26 27 27 28 29 31 33 39 37 36 36 42 44 31 33
24 24 24 24 24 22 22 21 22 22 22 22 22 23 23 24 23 22 23 22 23 22 20 19 19 20 20 21 24 26 26 27 29 30 31 32 33 36 37 35 40 39 42 50 57
24 24 25 23 23 23 22 22 21 21 22 22 22 23 24 26 24 23 22 23 24 24 23 21 21 22 22 22 24 26 27 27 29 31 32 32 33 34 36 39 41 39 45 48 55
28 25 26 25 25 25 24 23 24 24 23 23 22 23 25 27 25 26 26 26 25 25 24 24 24 24 24 24 27 28 29 30 30 30 30 30 31 32 35 37 38 40 43 44 45
29 26 27 27 28 26 25 24 25 26 26 24 24 25 26 29 28 29 28 28 27 26 26 26 26 26 26 27 28 29 29 29 31 31 31 31 34 35 36 40 38 39 39 38 41
30 29 30 28 29 28 27 27 27 25 26 26 26 27 28 28 29 28 28 28 28 28 28 27 27 28 29 29 30 31 32 33 34 34 34 33 36 36 38 41 40 41 40 42 43
31 31 32 29 28 29 29 29 28 27 26 28 29 29 29 29 30 30 30 29 30 30 30 31 31 31 32 33 33 35 36 35 33 35 36 36 37 36 41 43 42 43 41 48 50
32 32 31 31 30 29 29 30 29 27 27 28 30 30 31 30 32 33 32 32 31 31 32 33 33 32 33 33 36 34 35 35 36 37 38 37 37 36 43 43 42 44 41 47 54
32 32 32 30 29 29 28 27 27 26 26 26 26 27 31 31 33 34 36 35 35 33 33 31 32 36 36 35 37 36 36 38 41 36 38 38 38 34 40 40 41 38 36 44 52
33 34 33 31 30 30 30 29 29 29 29 28 27 26 30 30 34 36 38 40 40 40 38 35 40 40 36 37 40 39 39 41 43 42 38 41 40 37 38 40 43 36 34 40 46
33 35 35 34 33 34 34 33 33 35 35 33 32 33 33 34 36 37 40 41 43 43 43 42 46 41 40 41 43 43 42 45 44 44 41 39 39 42 42 37 42 38 39 40 42
30 36 38 37 37 36 37 37 36 37 38 38 41 42 42 42 42 40 42 44 45 46 44 45 48 46 45 45 46 45 47 47 45 46 42 43 41 43 51 45 43 42 41 44 43
33 32 34 35 38 39 39 40 40 41 40 41 47 45 43 46 43 45 45 44 47 46 40 46 45 45 46 47 48 45 50 47 46 45 44 45 46 44 52 55 48 44 43 44 49
40 39 38 38 38 40 41 42 43 45 45 41 44 48 49 49 51 49 48 49 51 48 47 49 50 48 48 50 51 50 52 50 49 49 43 48 57 44 52 57 54 45 44 44 49
38 41 43 44 43 44 44 46 49 51 49 44 45 49 51 48 50 50 49 51 53 53 53 54 54 53 53 52 53 54 55 53 52 52 45 55 59 49 58 58 60 51 45 47 53
34 37 38 41 43 43 41 41 43 42 39 45 46 47 50 51 52 54 53 52 57 60 59 58 55 60 61 56 57 59 59 55 56 57 54 59 57 52 58 60 64 56 53 52 52
35 34 35 36 37 39 41 42 41 42 47 46 46 48 53 58 57 59 58 57 57 59 61 65 55 65 62 62 62 60 61 64 63 62 63 57 58 61 63 60 60 62 56 53 55
38 38 39 41 42 44 46 46 47 49 52 54 52 53 55 57 57 62 63 63 64 70 74 64 56 63 64 67 64 66 64 71 68 64 66 60 61 64 71 67 65 63 63 63 63
41 43 43 45 47 48 51 55 56 53 56 59 59 58 60 59 63 67 64 68 80 74 75 73 69 62 65 69 68 72 71 72 73 70 71 65 64 67 73 77 71 67 66 67 65
46 47 48 50 52 53 58 60 62 61 60 63 67 67 67 65 65 69 72 77 77 76 75 75 70 66 66 67 71 77 75 78 79 74 75 72 67 66 74 78 78 74 69 69 62
48 51 51 55 57 56 63 65 68 68 67 69 74 73 74 73 70 73 77 84 83 86 82 79 81 77 74 73 74 79 78 81 86 82 78 82 62 70 72 74 78 80 72 70 68
53 55 56 63 65 66 69 71 75 73 73 73 74 77 78 78 80 76 79 83 88 92 90 88 86 88 80 76 81 84 83 82 86 86 79 79 72 73 74 78 78 79 76 70 71
57 59 62 64 66 69 71 75 77 78 81 81 83 84 86 88 88 88 84 85 91 100 96 96 94 91 84 84 86 88 88 88 88 87 90 83 82 74 75 75 72 68 77 72 72
60 61 62 65 69 71 74 76 81 84 87 89 91 91 93 93 93 91 93 92 91 96 102 102 98 97 89 95 97 94 90 87 87 88 92 87 82 78 75 79 74 77 80 82 75
57 63 65 67 70 75 80 84 88 90 92 93 95 96 99 99 100 100 99 97 98 100 102 109 108 103 91 95 96 93 87 92 91 93 97 96 89 79 83 81 89 88 90 84 88
Wind_Direction
220 222 228 233 237 243 245 245 252 252 249 250 245 244 243 242 243 240 234 232 234 235 233 232 234 236 238 242 245 250 254 253 253 250 246 249 244 241 245 247 226 222 252 260 259
228 229 235 241 244 246 245 244 244 235 241 242 243 246 246 242 241 241 238 234 233 234 232 230 231 234 237 241 244 247 250 250 249 245 239 244 246 242 242 246 236 227 239 251 253
235 240 246 250 249 241 235 232 228 229 234 241 246 249 248 246 242 242 241 239 235 237 238 237 235 236 238 240 243 245 248 248 251 249 248 248 253 255 244 245 242 236 226 225 234
238 250 254 248 237 230 224 222 224 230 237 243 249 248 247 249 245 243 242 239 238 236 237 239 242 242 244 247 248 247 247 248 248 251 252 254 253 256 255 248 241 242 242 244 246
240 252 253 242 227 225 223 224 229 235 241 248 248 246 246 249 251 250 248 245 244 241 238 236 239 245 247 245 250 250 250 250 250 250 251 255 259 261 263 262 249 247 246 244 244
238 250 247 232 226 226 227 232 236 240 247 249 249 250 250 255 253 253 250 248 246 244 240 239 239 242 244 246 248 252 251 253 257 258 259 259 260 262 262 263 265 264 265 264 266
240 251 241 231 230 231 235 238 245 251 251 249 250 253 253 253 253 255 253 252 250 247 243 243 243 243 244 246 249 252 256 259 259 260 260 260 261 261 265 263 267 269 267 270 270
243 250 236 233 235 239 240 247 251 254 252 250 250 251 251 254 256 254 254 254 253 252 251 248 244 244 246 249 251 254 253 253 258 260 261 261 261 264 267 267 269 271 275 273 271
246 247 234 236 242 245 245 250 253 256 252 250 251 253 254 253 253 252 254 258 257 257 256 253 251 249 249 251 254 254 255 256 259 264 264 263 266 267 266 268 268 269 272 274 274
248 241 236 241 246 246 248 250 251 251 249 249 249 250 253 253 255 254 253 255 259 258 257 256 255 252 247 247 252 256 260 262 263 264 266 268 268 268 270 271 273 272 274 275 274
244 235 237 244 247 249 249 252 255 256 256 255 256 256 257 255 257 257 256 255 256 257 258 260 253 249 249 254 256 258 262 264 262 261 269 267 268 266 273 276 274 274 275 273 275
241 235 240 243 246 249 251 251 254 256 255 257 260 262 264 265 264 259 256 257 257 257 257 257 255 250 254 258 259 261 262 264 265 264 264 270 272 270 271 274 277 279 277 273 276
245 241 243 245 249 250 254 255 257 257 257 256 259 261 263 266 266 264 262 261 261 260 258 256 256 257 258 259 262 262 265 265 265 266 266 270 276 277 270 267 278 279 281 277 280
247 244 247 250 252 255 257 257 258 256 255 256 259 263 267 268 266 267 263 261 260 259 260 259 258 257 258 261 261 265 263 265 265 266 267 267 271 278 277 272 271 276 275 279 279
251 251 250 253 255 256 257 258 258 257 256 260 263 266 267 266 267 266 264 260 259 260 259 257 259 255 257 259 261 263 265 265 267 268 269 275 270 271 277 278 271 270 272 278 279
251 253 254 255 256 257 259 259 259 259 260 259 268 270 265 268 269 268 263 260 259 258 258 257 257 259 257 262 265 264 266 266 267 269 273 275 273 272 272 272 275 275 276 276 277
255 255 256 257 256 258 261 261 262 264 266 266 258 264 268 268 267 264 261 262 261 260 259 257 261 262 262 262 263 265 265 268 271 273 272 272 272 276 276 277 277 274 273 269 271
263 260 258 258 261 263 263 263 265 268 268 263 262 261 262 265 264 263 264 263 263 262 260 259 260 262 262 264 263 267 268 270 270 272 271 274 280 277 271 273 278 278 276 273 273
266 263 262 261 263 265 267 269 270 274 271 271 272 271 266 262 263 264 266 269 265 264 262 259 256 261 264 265 265 265 270 272 271 273 273 275 276 274 274 272 274 279 279 278 276
270 267 266 266 268 270 271 272 270 273 276 274 274 273 270 270 268 264 264 264 263 261 256 259 263 265 266 266 269 269 268 273 274 272 274 273 275 277 277 278 277 277 279 281 277
266 271 268 270 271 273 274 274 273 273 274 276 276 275 274 271 269 267 264 263 262 263 263 263 262 260 265 268 266 266 266 267 268 273 273 274 276 276 279 282 280 279 280 282 284
267 272 274 274 274 276 276 275 277 276 275 275 276 275 273 271 269 270 270 267 268 266 266 267 266 262 260 264 270 270 271 271 270 271 273 269 271 271 273 277 279 279 279 282 285
270 274 274 275 276 277 278 280 279 280 280 277 276 274 274 272 269 265 265 266 267 267 266 265 266 263 261 261 262 266 269 269 271 269 272 276 278 274 273 273 273 277 277 276 279
274 274 275 278 275 276 277 279 280 278 276 274 272 271 271 270 271 268 268 269 269 269 268 267 264 265 265 262 264 264 265 267 268 271 272 272 271 273 272 274 274 274 274 272 274
278 278 279 280 281 282 281 282 281 280 279 277 276 274 274 274 274 274 271 267 268 271 270 270 269 268 267 266 263 262 263 265 267 271 270 269 269 269 270 269 272 275 274 275 275
280 280 280 280 281 283 283 282 281 281 280 281 281 279 277 276 275 273 272 272 269 269 270 269 266 266 265 265 264 264 265 267 268 268 269 266 264 264 263 266 269 264 272 275 271
281 283 284 284 283 283 283 283 284 284 284 283 282 282 281 281 280 278 275 272 271 269 268 270 269 265 261 261 261 261 264 262 262 263 264 265 266 264 267 269 267 271 273 276 280
Height
10888 10891 10893 10895 10897 10899 10902 10904 10906 10908 10910 10911 10912 10914 10916 10916 10917 10918 10919 10921 10922 10924 10926 10928 10930 10931 10932 10932 10933 10932 10934 10937 10939 10941 10942 10937 10943 10949 10943 10949 10962 10953 10950 10955 10958
10885 10887 10889 10891 10893 10895 10897 10899 10901 10904 10906 10907 10909 10911 10912 10912 10914 10915 10916 10917 10919 10920 10922 10924 10926 10927 10928 10929 10929 10930 10931 10933 10933 10936 10936 10932 10935 10937 10941 10947 10953 10946 10947 10947 10953
10881 10883 10885 10886 10888 10890 10892 10894 10897 10900 10902 10904 10905 10906 10907 10908 10910 10911 10912 10913 10915 10916 10918 10920 10921 10922 10923 10924 10924 10927 10927 10927 10928 10930 10930 10929 10931 10927 10939 10939 10941 10940 10943 10944 10947
10877 10879 10881 10881 10883 10886 10888 10891 10893 10896 10898 10900 10901 10902 10902 10903 10905 10907 10908 10910 10911 10913 10915 10916 10917 10918 10918 10919 10919 10920 10921 10922 10923 10924 10925 10924 10926 10923 10928 10933 10933 10938 10937 10937 10941
10873 10874 10876 10877 10880 10882 10885 10887 10890 10892 10894 10896 10897 10898 10898 10898 10901 10902 10904 10905 10907 10909 10910 10912 10913 10913 10914 10914 10914 10915 10915 10916 10917 10919 10920 10921 10921 10920 10919 10920 10926 10930 10930 10935 10936
10868 10869 10871 10873 10876 10878 10880 10883 10885 10887 10889 10891 10893 10894 10894 10894 10896 10897 10898 10900 10902 10904 10905 10906 10908 10909 10909 10910 10909 10909 10910 10910 10911 10914 10916 10916 10916 10915 10914 10910 10914 10917 10917 10920 10922
10863 10865 10867 10869 10871 10874 10876 10878 10880 10883 10884 10886 10888 10889 10890 10889 10891 10892 10893 10894 10896 10898 10899 10900 10902 10903 10904 10904 10904 10904 10905 10906 10905 10907 10908 10910 10909 10909 10909 10906 10909 10908 10911 10915 10914
10858 10859 10861 10863 10866 10869 10871 10873 10875 10877 10879 10881 10882 10883 10884 10885 10886 10887 10888 10889 10891 10892 10893 10895 10896 10897 10898 10899 10898 10899 10899 10899 10899 10900 10901 10903 10902 10904 10902 10899 10902 10902 10905 10904 10904
10852 10853 10855 10858 10861 10863 10865 10867 10869 10871 10873 10874 10876 10877 10878 10880 10880 10881 10883 10884 10885 10886 10886 10888 10889 10890 10891 10891 10892 10890 10890 10892 10895 10894 10894 10895 10895 10897 10894 10893 10895 10897 10901 10892 10890
10845 10847 10850 10852 10855 10857 10859 10861 10863 10865 10867 10868 10869 10870 10870 10872 10873 10875 10875 10876 10877 10878 10879 10880 10881 10882 10882 10883 10881 10883 10884 10886 10887 10886 10886 10887 10888 10890 10884 10885 10888 10888 10895 10885 10877
10838 10841 10844 10846 10848 10850 10853 10855 10856 10858 10859 10861 10862 10864 10862 10865 10865 10867 10867 10868 10869 10870 10871 10874 10873 10870 10874 10874 10874 10876 10877 10877 10875 10880 10877 10877 10878 10883 10876 10877 10877 10881 10886 10877 10867
10831 10834 10837 10840 10842 10844 10846 10848 10850 10851 10853 10854 10854 10855 10854 10856 10856 10858 10858 10859 10861 10861 10864 10866 10860 10863 10866 10866 10865 10866 10867 10866 10866 10868 10870 10867 10869 10872 10870 10869 10866 10874 10875 10868 10862
10825 10828 10830 10832 10834 10836 10839 10840 10842 10843 10844 10846 10845 10846 10846 10847 10847 10849 10849 10850 10851 10852 10853 10855 10849 10855 10856 10855 10854 10855 10857 10854 10856 10856 10861 10860 10859 10856 10858 10863 10856 10864 10862 10859 10856
10819 10821 10823 10825 10827 10828 10830 10832 10834 10835 10836 10837 10835 10835 10838 10835 10837 10839 10838 10840 10839 10839 10843 10842 10841 10844 10844 10844 10842 10844 10844 10843 10845 10845 10850 10848 10852 10849 10838 10847 10851 10850 10852 10849 10848
10812 10813 10815 10816 10818 10819 10821 10822 10823 10824 10827 10828 10823 10827 10826 10823 10828 10827 10827 10829 10826 10827 10834 10825 10829 10831 10833 10830 10830 10834 10829 10833 10833 10835 10837 10838 10838 10840 10829 10828 10837 10841 10841 10840 10835
10804 10805 10807 10808 10809 10810 10810 10811 10811 10811 10815 10821 10817 10812 10812 10813 10812 10814 10815 10815 10814 10817 10820 10816 10815 10819 10821 10818 10817 10819 10817 10820 10820 10822 10830 10825 10813 10833 10822 10815 10821 10829 10831 10831 10825
10795 10796 10797 10798 10799 10799 10800 10800 10799 10798 10804 10811 10808 10795 10797 10801 10798 10799 10802 10802 10801 10802 10803 10802 10803 10805 10805 10805 10803 10803 10803 10807 10809 10808 10819 10805 10802 10819 10806 10805 10800 10814 10820 10818 10811
10786 10786 10787 10787 10787 10787 10787 10787 10786 10788 10792 10786 10789 10791 10787 10785 10785 10784 10787 10791 10787 10783 10786 10787 10792 10786 10786 10794 10792 10790 10789 10794 10793 10792 10799 10791 10796 10804 10795 10792 10786 10799 10802 10802 10803
10777 10778 10778 10778 10777 10776 10775 10776 10777 10776 10771 10775 10776 10777 10774 10770 10773 10772 10774 10774 10771 10767 10765 10763 10782 10767 10775 10774 10777 10782 10779 10772 10776 10779 10778 10785 10781 10776 10775 10778 10780 10780 10788 10792 10789
10768 10768 10768 10767 10766 10765 10763 10764 10764 10762 10759 10758 10762 10759 10758 10755 10758 10756 10757 10754 10749 10736 10732 10753 10770 10764 10764 10760 10767 10762 10765 10753 10759 10763 10757 10768 10766 10760 10748 10759 10765 10769 10768 10768 10768
10760 10756 10758 10756 10755 10753 10750 10748 10748 10753 10749 10741 10741 10744 10742 10744 10738 10733 10741 10734 10706 10729 10729 10735 10747 10759 10751 10745 10748 10740 10743 10742 10735 10742 10740 10753 10755 10747 10734 10732 10745 10748 10747 10746 10746
10750 10748 10746 10744 10742 10741 10734 10733 10730 10735 10737 10729 10720 10720 10722 10725 10725 10719 10714 10704 10705 10709 10712 10715 10726 10736 10737 10732 10726 10718 10725 10721 10720 10732 10723 10730 10743 10739 10725 10716 10717 10727 10730 10729 10728
10739 10736 10735 10729 10727 10729 10718 10717 10714 10713 10716 10711 10701 10700 10698 10700 10705 10700 10695 10679 10685 10680 10690 10697 10694 10703 10713 10718 10714 10699 10702 10698 10690 10701 10710 10702 10731 10718 10715 10712 10705 10701 10714 10715 10712
10724 10724 10722 10712 10712 10711 10705 10701 10691 10696 10693 10689 10682 10677 10676 10675 10674 10681 10677 10669 10660 10654 10659 10666 10672 10670 10687 10698 10688 10680 10683 10681 10672 10676 10692 10691 10703 10699 10693 10680 10690 10690 10687 10697 10699
10710 10707 10706 10701 10692 10689 10686 10679 10673 10668 10664 10664 10661 10658 10653 10651 10649 10649 10657 10657 10643 10624 10634 10634 10639 10645 10661 10660 10656 10655 10658 10661 10662 10662 10657 10669 10667 10680 10674 10662 10670 10667 10669 10674 10675
10696 10691 10688 10685 10679 10673 10663 10660 10651 10644 10640 10635 10631 10630 10626 10622 10622 10623 10618 10618 10621 10611 10595 10596 10609 10615 10636 10621 10619 10629 10641 10646 10643 10637 10625 10633 10642 10649 10654 10640 10644 10657 10654 10652 10660
10680 10674 10669 10667 10662 10653 10646 10637 10629 10623 10614 10607 10602 10599 10590 10587 10584 10582 10580 10584 10584 10580 10575 10555 10558 10573 10599 10593 10592 10603 10619 10608 10612 10608 10598 10601 10618 10637 10636 10634 10629 10631 10634 10640 10633